GW5874 Weather Reports


time (UTC)temp
C
wind
direction
speed
KPH
gust
KPH
rain 1hr
cm
rain 24hr
cm
rain mn
cm
humidity
%
barometer
mb
20260506084633 7 197 1.6 1.6 0.00 0.00 0.00 86 1013.3
20260506084130 7 311 0.0 1.6 0.00 0.00 0.00 86 1013.4
20260506083627 8 205 1.6 1.6 0.00 0.00 0.00 87 1013.3
20260506083124 8 203 0.0 1.6 0.00 0.00 0.00 85 1013.5
20260506082621 7 222 1.6 1.6 0.00 0.00 0.00 85 1013.5
20260506082116 8 227 4.8 6.4 0.00 0.00 0.00 85 1013.2
20260506081615 8 226 0.0 1.6 0.00 0.00 0.00 85 1013.3
20260506081112 8 105 3.2 4.8 0.00 0.00 0.00 85 1013.5
20260506080610 8 98 3.2 4.8 0.00 0.00 0.00 85 1013.7
20260506080106 8 275 1.6 1.6 0.00 0.00 0.00 85 1013.2
20260506073049 8 351 4.8 4.8 0.00 0.00 0.00 86 1012.4
20260506072547 8 74 4.8 8.0 0.00 0.00 0.00 85 1012.8
20260506072044 8 58 3.2 4.8 0.00 0.00 0.00 86 1012.7
20260506071542 8 189 4.8 6.4 0.00 0.00 0.00 85 1012.6
20260506071040 8 152 1.6 1.6 0.00 0.00 0.00 86 1012.7
20260506070536 8 211 1.6 1.6 0.00 0.00 0.00 85 1013.0
20260506062514 8 277 4.8 8.0 0.00 0.00 0.00 88 1012.8
20260506062011 8 96 11.3 17.7 0.00 0.00 0.00 90 1012.7
20260506061506 8 322 3.2 8.0 0.00 0.00 0.00 92 1012.7
20260506061004 8 282 0.0 1.6 0.00 0.00 0.00 92 1013.2
20260506060503 7 335 1.6 1.6 0.00 0.00 0.00 93 1013.5
20260506050931 8 260 1.6 1.6 0.00 0.00 0.00 91 1013.7
20260506050429 8 255 0.0 0.0 0.00 0.00 0.00 91 1013.5
20260506044919 8 226 0.0 1.6 0.00 2.16 2.16 91 1013.4
20260506044418 8 271 1.6 1.6 0.00 2.16 2.16 91 1013.2
20260506043914 8 289 0.0 0.0 0.00 2.16 2.16 91 1013.1
20260506043412 8 354 8.0 8.0 0.00 2.16 2.16 91 1013.1
20260506042909 8 256 0.0 0.0 0.00 2.16 2.16 91 1013.2
20260506042409 8 118 8.0 16.1 0.00 2.16 2.16 91 1013.0
20260506041906 8 231 0.0 1.6 0.00 2.16 2.16 91 1013.0
20260506041403 8 181 0.0 1.6 0.00 2.16 2.16 91 1013.0
20260506040900 8 347 4.8 8.0 0.00 2.16 2.16 91 1012.4
20260506040358 8 213 3.2 4.8 0.00 2.16 2.16 91 1012.5
20260506035854 8 277 3.2 4.8 0.00 2.16 2.16 90 1012.4
20260506035351 8 271 3.2 4.8 0.00 2.16 2.16 90 1012.4
20260506034849 8 267 3.2 8.0 0.00 2.16 2.16 90 1012.4
20260506034346 8 97 4.8 6.4 0.00 2.16 2.16 90 1012.3
20260506033842 8 168 6.4 6.4 0.00 2.16 2.16 90 1012.1
20260506033339 8 184 0.0 1.6 0.00 2.16 2.16 90 1012.3
20260506032836 8 18 4.8 4.8 0.00 2.16 2.16 90 1012.2
20260506032333 8 340 8.0 8.0 0.00 2.16 2.16 90 1012.1
20260506031830 8 324 4.8 6.4 0.00 2.16 2.16 91 1012.0
20260506031327 8 108 1.6 4.8 0.00 2.16 2.16 91 1011.7
20260506030825 8 50 4.8 8.0 0.00 2.16 2.16 91 1011.9
20260506030323 8 48 3.2 4.8 0.00 2.16 2.16 91 1011.7
20260506025819 8 245 4.8 8.0 0.00 2.16 2.16 91 1011.6
20260506025315 8 231 1.6 1.6 0.00 2.16 2.16 90 1011.9
20260506024813 8 24 3.2 4.8 0.00 2.16 2.16 90 1011.6
20260506024310 8 183 4.8 6.4 0.00 2.16 2.16 90 1011.6
20260506023806 8 354 6.4 8.0 0.00 2.16 2.16 90 1011.4
20260506023303 8 335 3.2 4.8 0.00 2.16 2.16 90 1011.3
20260506022759 8 303 3.2 4.8 0.00 2.16 2.16 90 1011.1
20260506022257 8 57 1.6 4.8 0.00 2.16 2.16 90 1010.9
20260506021755 8 342 3.2 6.4 0.00 2.16 2.16 90 1010.9
20260506021252 8 335 3.2 6.4 0.00 2.16 2.16 90 1010.9
20260506020748 8 305 1.6 4.8 0.00 2.16 2.16 90 1010.9
20260506020246 8 163 0.0 1.6 0.00 2.16 2.16 91 1010.7
20260506015744 8 58 3.2 6.4 0.00 2.16 2.16 91 1010.7
20260506015241 8 163 3.2 4.8 0.00 2.16 2.16 92 1010.8
20260506014738 8 107 3.2 4.8 0.00 2.16 2.16 91 1010.6
20260506014234 8 38 3.2 6.4 0.00 2.16 2.16 91 1010.8
20260506013732 8 336 3.2 4.8 0.00 2.16 2.16 91 1010.6
20260506013229 8 339 4.8 8.0 0.00 2.16 2.16 91 1010.5
20260506012725 8 21 6.4 6.4 0.00 2.16 2.16 92 1010.4
20260506012222 8 287 4.8 6.4 0.00 2.16 2.16 92 1010.2
20260506011719 8 250 1.6 1.6 0.00 2.16 2.16 92 1010.5
20260506011215 8 260 0.0 1.6 0.00 2.16 2.16 92 1010.1
20260506010714 8 249 4.8 6.4 0.00 2.16 2.16 92 1010.1
20260506010211 8 297 0.0 0.0 0.00 2.16 2.16 92 1010.4
20260506005708 8 212 1.6 1.6 0.00 2.16 2.16 92 1010.3
20260506005205 8 217 0.0 1.6 0.00 2.16 2.16 92 1010.0
20260506004700 8 281 8.0 12.9 0.00 2.16 2.16 92 1009.9
20260506004159 8 222 4.8 8.0 0.00 2.16 2.16 92 1010.0
20260506003654 8 323 3.2 4.8 0.00 2.16 2.16 91 1009.7
20260506003151 8 263 1.6 4.8 0.00 2.16 2.16 91 1009.9
20260506002646 8 319 4.8 8.0 0.00 2.16 2.16 90 1010.0
20260506002143 8 279 3.2 4.8 0.00 2.16 2.16 90 1010.0
20260506001638 8 132 12.9 16.1 0.00 2.16 2.16 90 1010.0
20260506001136 8 254 3.2 4.8 0.00 2.16 2.16 90 1009.7
20260506000633 8 87 3.2 4.8 0.00 2.16 2.16 89 1009.9
20260506000131 8 41 6.4 8.0 0.00 2.16 2.16 88 1010.0
20260505235629 8 62 4.8 6.4 0.00 2.16 2.16 88 1009.9
20260505235125 8 2 4.8 6.4 0.00 2.16 2.16 89 1009.9
20260505234622 8 47 9.7 16.1 0.00 2.16 2.16 88 1009.4
20260505234119 8 117 12.9 19.3 0.00 2.16 2.16 88 1009.6
20260505233617 8 254 0.0 1.6 0.00 2.16 2.16 88 1009.4
20260505233114 8 192 3.2 4.8 0.00 2.16 2.16 88 1009.5
20260505232612 8 64 11.3 17.7 0.00 2.16 2.16 87 1009.1
20260505232109 8 12 8.0 12.9 0.00 2.16 2.16 88 1009.1
20260505231606 9 184 4.8 8.0 0.00 2.16 2.16 87 1008.9
20260505231104 9 128 3.2 4.8 0.00 2.16 2.16 86 1009.0
20260505230602 9 196 3.2 4.8 0.00 2.16 2.16 86 1009.2
20260505230058 9 213 0.0 1.6 0.00 2.16 2.16 85 1009.0
20260505225555 9 341 8.0 11.3 0.00 2.16 2.16 85 1009.2
20260505225050 9 301 1.6 1.6 0.00 2.16 2.16 84 1009.0
20260505224548 9 248 1.6 1.6 0.00 2.16 2.16 84 1009.0
20260505224045 9 337 6.4 6.4 0.00 2.16 2.16 84 1009.0
20260505223542 10 283 3.2 6.4 0.00 2.16 2.16 85 1008.7
20260505223038 10 73 0.0 1.6 0.00 2.16 2.16 84 1008.9
20260505222534 10 308 3.2 4.8 0.00 2.16 2.16 84 1008.4
20260505222031 10 207 0.0 1.6 0.00 2.16 2.16 84 1008.4
20260505221528 10 335 4.8 6.4 0.00 2.16 2.16 83 1008.5
20260505221024 10 1 8.0 12.9 0.00 2.16 2.16 84 1008.4
20260505220522 10 60 3.2 6.4 0.00 2.16 2.16 84 1008.4
20260505220020 10 2 9.7 12.9 0.00 2.16 2.16 86 1008.5
20260505215518 10 174 6.4 8.0 0.00 2.16 2.16 85 1008.7
20260505215015 10 57 12.9 17.7 0.00 2.16 2.16 85 1008.7
20260505214513 10 227 4.8 6.4 0.00 2.16 2.16 86 1008.5
20260505214009 10 112 6.4 11.3 0.00 2.16 2.16 86 1008.4
20260505213508 10 305 1.6 1.6 0.00 2.16 2.16 87 1008.4
20260505213004 10 102 3.2 4.8 0.00 2.16 2.16 87 1008.2
20260505212500 10 71 9.7 12.9 0.00 2.16 2.16 85 1008.3
20260505211957 10 262 3.2 4.8 0.00 2.16 2.16 86 1008.3
20260505211454 10 287 6.4 8.0 0.00 2.16 2.16 87 1008.2
20260505210950 10 158 12.9 17.7 0.00 2.16 2.16 88 1008.2
20260505210448 10 43 17.7 24.1 0.00 2.16 2.16 89 1008.4
20260505205944 10 203 3.2 4.8 0.00 2.16 2.16 90 1008.3
20260505205443 10 49 3.2 6.4 0.00 2.16 2.16 90 1008.4
20260505204939 10 35 8.0 11.3 0.00 2.16 2.16 89 1008.3
20260505204437 10 304 6.4 6.4 0.00 2.16 2.16 88 1008.5
20260505203934 10 82 3.2 4.8 0.00 2.16 2.16 88 1008.4
20260505203431 10 322 1.6 4.8 0.00 2.16 2.16 88 1008.5
20260505202927 10 324 8.0 12.9 0.00 2.16 2.16 88 1008.5
20260505202423 10 251 8.0 11.3 0.00 2.16 2.16 88 1008.2
20260505201920 10 189 8.0 8.0 0.00 2.16 2.16 89 1008.0
20260505201417 10 280 8.0 11.3 0.00 2.16 2.16 89 1008.1
20260505200915 10 42 8.0 11.3 0.00 2.16 2.16 90 1008.2
20260505200412 10 18 8.0 11.3 0.00 2.16 2.16 90 1008.3
20260505195907 10 264 8.0 12.9 0.00 2.16 2.16 90 1008.3
20260505195405 11 263 0.0 1.6 0.00 2.16 2.16 91 1007.8
20260505194902 11 281 11.3 16.1 0.00 2.16 2.16 91 1008.0
20260505194400 11 126 3.2 4.8 0.00 2.16 2.16 91 1008.0
20260505193900 11 60 1.6 4.8 0.00 2.16 2.16 90 1008.1
20260505193358 11 263 4.8 6.4 0.00 2.16 2.16 89 1008.1
20260505192855 11 221 3.2 6.4 0.00 2.16 2.16 90 1008.1
20260505192354 11 290 4.8 11.3 0.00 2.16 2.16 89 1007.8
20260505191851 11 334 6.4 8.0 0.00 2.16 2.16 89 1007.9
20260505191349 11 296 4.8 8.0 0.00 2.16 2.16 89 1007.5
20260505190846 11 109 8.0 17.7 0.00 2.16 2.16 88 1007.5
20260505190341 11 199 4.8 8.0 0.00 2.16 2.16 88 1007.6
20260505185837 11 295 6.4 8.0 0.00 2.16 2.16 88 1007.5
20260505185334 11 235 1.6 1.6 0.00 2.16 2.16 88 1007.7
20260505184830 11 337 9.7 12.9 0.00 2.16 2.16 89 1007.4
20260505184327 11 242 0.0 1.6 0.00 2.16 2.16 90 1007.8
20260505183824 11 26 8.0 16.1 0.00 2.16 2.16 88 1007.8
20260505183321 11 222 3.2 4.8 0.00 2.16 2.16 89 1008.0
20260505182818 11 180 4.8 6.4 0.00 2.16 2.16 89 1007.7
20260505182314 12 8 9.7 11.3 0.00 2.16 2.16 89 1007.7
20260505181811 12 322 3.2 6.4 0.00 2.16 2.16 89 1007.5
20260505181309 12 294 4.8 8.0 0.00 2.16 2.16 89 1007.4
20260505180805 12 140 3.2 6.4 0.00 2.16 2.16 90 1007.2
20260505180301 12 29 6.4 8.0 0.13 2.16 2.16 90 1007.2
20260505175758 12 56 8.0 11.3 0.13 2.16 2.16 90 1006.9
20260505175254 12 124 8.0 8.0 0.00 2.13 2.13 90 1007.4
20260505174751 12 111 14.5 17.7 0.00 2.13 2.13 90 1007.1
20260505174248 12 123 8.0 12.9 0.00 2.13 2.13 90 1007.3
20260505173744 12 70 4.8 8.0 0.00 2.13 2.13 91 1007.2
20260505173241 12 266 3.2 4.8 0.00 2.13 2.13 91 1007.3
20260505172738 12 36 6.4 11.3 0.00 2.13 2.13 91 1007.1
20260505172235 12 108 4.8 6.4 0.00 2.13 2.13 92 1007.0
20260505171735 12 16 8.0 11.3 0.00 2.13 2.13 92 1006.9
20260505171232 12 256 8.0 12.9 0.00 2.13 2.13 92 1007.1
20260505170729 12 123 9.7 12.9 0.00 2.13 2.13 92 1006.9
20260505170226 12 283 4.8 6.4 0.00 2.13 2.13 92 1007.0
20260505165721 12 20 6.4 8.0 0.00 2.13 2.13 92 1007.0
20260505165217 12 268 4.8 4.8 0.00 2.13 2.13 93 1007.1
20260505164713 12 89 4.8 6.4 0.00 2.13 2.13 93 1006.8
20260505164210 12 47 11.3 16.1 0.00 2.13 2.13 93 1007.0
20260505163708 12 32 1.6 1.6 0.00 2.13 2.13 93 1006.8
20260505163206 12 31 4.8 6.4 0.00 2.13 2.13 93 1007.0
20260505162703 12 318 1.6 4.8 0.00 2.13 2.13 93 1006.9
20260505162201 12 223 3.2 6.4 0.00 2.13 2.13 93 1006.8
20260505161657 12 59 8.0 12.9 0.00 2.13 2.13 93 1006.9
20260505161154 12 44 3.2 8.0 0.00 2.13 2.13 93 1006.9
20260505160652 12 0 12.9 17.7 0.00 2.13 2.13 93 1006.6
20260505160150 13 348 6.4 16.1 0.00 2.13 2.13 95 1006.4
20260505153129 13 314 1.6 1.6 0.00 2.13 2.13 95 1006.3
20260505152625 13 284 4.8 6.4 0.00 2.13 2.13 95 1006.2
20260505152121 13 134 8.0 8.0 0.00 2.13 2.13 95 1006.2
20260505151617 14 71 0.0 1.6 0.00 2.13 2.13 95 1006.1
20260505151114 14 287 1.6 1.6 0.00 2.13 2.13 96 1006.1
20260505150610 14 231 0.0 1.6 0.00 2.13 2.13 96 1006.1
20260505150108 14 345 6.4 8.0 0.00 2.13 2.13 96 1005.9
20260505140536 15 81 1.6 1.6 0.00 2.13 2.13 99 1005.9
20260505124949 15 102 1.6 1.6 0.00 2.13 2.13 99 1005.7
20260505124446 15 78 0.0 0.0 0.00 2.13 2.13 99 1005.6
20260505123942 15 195 3.2 4.8 0.18 2.13 2.13 99 1005.6
20260505123439 15 18 1.6 1.6 0.18 2.13 2.13 99 1005.7
20260505122935 15 340 0.0 1.6 0.00 2.11 2.11 99 1005.6
20260505122432 15 265 1.6 1.6 0.00 2.11 2.11 99 1005.6
20260505121929 15 291 0.0 0.0 0.00 2.11 2.11 99 1005.3
20260505121426 15 64 3.2 6.4 0.13 2.11 2.11 99 1005.0
20260505120922 15 201 3.2 4.8 0.13 2.11 2.11 99 1005.2
20260505120418 15 239 0.0 0.0 0.00 2.08 2.08 99 1005.0
20260505115917 15 215 0.0 1.6 0.00 2.08 2.08 99 1005.0
20260505115414 15 305 0.0 0.0 0.00 2.08 2.08 99 1005.3
20260505114912 15 285 1.6 4.8 0.00 2.08 2.08 99 1004.9
20260505114408 15 104 6.4 11.3 0.00 2.08 2.08 99 1004.7
20260505113905 15 342 1.6 1.6 0.00 2.08 2.08 99 1004.7
20260505113402 15 292 1.6 1.6 0.00 2.08 2.08 99 1004.8
20260505112857 16 220 4.8 6.4 0.00 2.08 2.08 99 1004.7
20260505112355 15 7 1.6 1.6 0.00 2.08 2.08 99 1004.4
20260505111850 16 258 0.0 0.0 0.00 2.08 2.08 99 1004.4
20260505111346 16 313 1.6 1.6 0.00 2.08 2.08 99 1004.4
20260505110842 15 329 3.2 4.8 0.00 2.08 2.08 99 1004.5
20260505110340 16 273 1.6 1.6 0.00 2.08 2.08 99 1004.5
20260505101815 16 200 6.4 8.0 0.00 2.08 2.08 99 1004.4
20260505101310 16 204 3.2 4.8 0.00 2.08 2.08 99 1004.4
20260505100806 16 343 0.0 1.6 0.00 2.08 2.08 99 1004.5
20260505100303 16 202 4.8 4.8 0.00 2.08 2.08 99 1004.5
20260505095759 16 164 3.2 6.4 0.00 2.08 2.08 99 1004.5
20260505095257 16 172 3.2 4.8 0.00 2.08 2.08 99 1004.4
20260505094752 16 200 0.0 0.0 0.00 2.08 2.08 99 1004.6
20260505094249 16 205 6.4 6.4 0.00 2.08 2.08 99 1004.9
20260505093744 16 206 4.8 6.4 0.00 2.08 2.08 99 1005.0
20260505093242 16 208 3.2 4.8 0.18 2.08 2.08 99 1005.0
20260505092739 16 161 3.2 4.8 0.30 2.08 2.08 99 1005.0
20260505092238 16 183 4.8 4.8 0.13 2.06 2.06 99 1005.4
20260505091734 16 337 3.2 4.8 0.00 2.03 2.03 99 1005.4
20260505091233 16 270 3.2 4.8 0.00 2.03 2.03 98 1005.3
20260505090730 16 212 3.2 4.8 0.18 2.03 2.03 98 1005.3
20260505090228 16 146 1.6 1.6 0.18 2.03 2.03 98 1005.2
20260505085725 16 132 4.8 6.4 0.13 2.01 2.01 98 1005.2
20260505085223 16 202 3.2 4.8 0.30 2.01 2.01 98 1005.1